PAB260 LEMD-LFPG

Flight info

Callsign PAB260
Flight time N/A
Altitude 24000
Route SSY DCT SSN DCT BMC DCT BCY DCT BT
Aircraft CONI/M-SDFY/C

Departure

Time 2026-05-06 14:42
Airport Adolfo Suárez Madrid–Barajas Airport (LEMD)

Arrival

Time N/A
Airport Charles de Gaulle International Airport (LFPG)
Time Latitude Longitude Altitude Speed Heading
2026-05-06 14:25 40.49271 -3.56353 2010 ft 0 kts 270°
2026-05-06 14:35 40.49274 -3.56417 2010 ft 1 kts 288°
2026-05-06 14:35 40.49308 -3.56456 2010 ft 13 kts 352°
2026-05-06 14:35 40.49423 -3.56456 2010 ft 21 kts
2026-05-06 14:35 40.49584 -3.56452 2010 ft 21 kts
2026-05-06 14:36 40.49607 -3.56452 2010 ft 0 kts
2026-05-06 14:36 40.49608 -3.56452 2010 ft 2 kts
2026-05-06 14:36 40.49647 -3.56451 2010 ft 2 kts
2026-05-06 14:36 40.49686 -3.56451 2010 ft 16 kts
2026-05-06 14:37 40.49821 -3.56450 2010 ft 22 kts
2026-05-06 14:37 40.49930 -3.56451 2010 ft 14 kts 357°
2026-05-06 14:37 40.50025 -3.56392 2010 ft 20 kts 85°
2026-05-06 14:37 40.50024 -3.56156 2010 ft 28 kts 88°
2026-05-06 14:38 40.50048 -3.55964 2010 ft 15 kts 59°
2026-05-06 14:38 40.50090 -3.55921 2010 ft 2 kts 15°
2026-05-06 14:38 40.50105 -3.55919 2010 ft 0 kts 358°
2026-05-06 14:40 40.50106 -3.55919 2010 ft 0 kts 359°
2026-05-06 14:40 40.50220 -3.55921 2010 ft 52 kts
2026-05-06 14:41 40.50785 -3.55939 2011 ft 105 kts
2026-05-06 14:41 40.51601 -3.55929 2139 ft 121 kts
2026-05-06 14:41 40.52488 -3.55922 2346 ft 134 kts
2026-05-06 14:41 40.53467 -3.55911 2574 ft 150 kts
2026-05-06 14:42 40.54539 -3.55705 2923 ft 162 kts
2026-05-06 14:42 40.55724 -3.55626 3196 ft 177 kts
2026-05-06 14:42 40.56955 -3.55357 3452 ft 181 kts 13°
2026-05-06 14:42 40.58173 -3.54911 3707 ft 183 kts 18°
2026-05-06 14:43 40.59384 -3.54359 3959 ft 185 kts 20°
2026-05-06 14:43 40.60583 -3.53748 4211 ft 185 kts 22°
2026-05-06 14:43 40.61778 -3.53099 4465 ft 186 kts 23°
2026-05-06 14:43 40.62967 -3.52426 4715 ft 186 kts 24°
2026-05-06 14:44 40.64152 -3.51739 4965 ft 186 kts 24°
2026-05-06 14:44 40.65328 -3.51048 5214 ft 184 kts 24°
2026-05-06 14:44 40.66494 -3.50356 5462 ft 183 kts 24°
2026-05-06 14:45 40.68798 -3.48976 5961 ft 181 kts 24°
2026-05-06 14:45 40.69937 -3.48291 6212 ft 179 kts 24°
2026-05-06 14:45 40.71068 -3.47609 6462 ft 179 kts 25°
2026-05-06 14:45 40.72196 -3.46928 6713 ft 178 kts 25°
2026-05-06 14:46 40.73303 -3.46259 6953 ft 177 kts 25°
2026-05-06 14:46 40.74431 -3.45576 7206 ft 177 kts 25°
2026-05-06 14:46 40.75566 -3.44888 7461 ft 182 kts 25°
2026-05-06 14:46 40.76710 -3.44196 7710 ft 185 kts 25°
2026-05-06 14:47 40.77886 -3.43483 7963 ft 187 kts 24°
2026-05-06 14:47 40.79076 -3.42762 8215 ft 189 kts 24°
2026-05-06 14:47 40.80273 -3.42036 8466 ft 190 kts 24°
2026-05-06 14:47 40.81477 -3.41305 8717 ft 190 kts 24°
2026-05-06 14:48 40.82681 -3.40575 8967 ft 190 kts 24°
2026-05-06 14:48 40.83884 -3.39843 9217 ft 190 kts 24°
2026-05-06 14:48 40.85083 -3.39115 9466 ft 190 kts 24°
2026-05-06 14:48 40.86281 -3.38386 9716 ft 190 kts 24°
2026-05-06 14:49 40.87484 -3.37655 9967 ft 191 kts 24°
2026-05-06 14:49 40.88691 -3.36920 10218 ft 191 kts 24°
2026-05-06 14:49 40.89905 -3.36181 10469 ft 192 kts 24°
2026-05-06 14:49 40.91116 -3.35443 10719 ft 192 kts 24°
2026-05-06 14:50 40.92336 -3.34700 10917 ft 195 kts 24°
2026-05-06 14:50 40.93574 -3.33946 11095 ft 198 kts 24°
2026-05-06 14:50 40.94830 -3.33181 11272 ft 200 kts 24°
2026-05-06 14:50 40.96099 -3.32408 11449 ft 202 kts 24°
2026-05-06 14:51 40.97376 -3.31628 11626 ft 203 kts 24°
2026-05-06 14:51 40.98660 -3.30844 11801 ft 204 kts 24°
2026-05-06 14:51 40.99950 -3.30057 11977 ft 204 kts 24°
2026-05-06 14:51 41.01240 -3.29268 12152 ft 204 kts 24°
2026-05-06 14:52 41.02514 -3.28489 12325 ft 204 kts 23°
2026-05-06 14:52 41.03804 -3.27700 12500 ft 204 kts 23°
2026-05-06 14:52 41.05094 -3.26911 12675 ft 204 kts 23°
2026-05-06 14:52 41.06398 -3.26113 12852 ft 204 kts 23°
2026-05-06 14:53 41.07682 -3.25326 13027 ft 203 kts 23°
2026-05-06 14:53 41.08970 -3.24538 13140 ft 205 kts 23°
2026-05-06 14:53 41.10275 -3.23740 13172 ft 211 kts 23°
2026-05-06 14:53 41.11612 -3.22922 13263 ft 216 kts 23°
2026-05-06 14:54 41.12986 -3.22079 13389 ft 219 kts 23°
2026-05-06 14:54 41.14378 -3.21225 13516 ft 221 kts 23°
2026-05-06 14:54 41.15779 -3.20364 13642 ft 223 kts 23°
2026-05-06 14:54 41.17192 -3.19496 13769 ft 224 kts 23°
2026-05-06 14:55 41.18606 -3.18626 13894 ft 225 kts 22°
2026-05-06 14:55 41.20027 -3.17752 14028 ft 226 kts 22°
2026-05-06 14:55 41.21459 -3.16871 14157 ft 228 kts 22°
2026-05-06 14:55 41.22905 -3.15981 14277 ft 230 kts 22°
2026-05-06 14:56 41.24353 -3.15089 14398 ft 229 kts 22°
2026-05-06 14:56 41.25799 -3.14198 14523 ft 228 kts 22°
2026-05-06 14:56 41.27238 -3.13311 14647 ft 228 kts 22°
2026-05-06 14:56 41.28674 -3.12425 14772 ft 227 kts 22°
2026-05-06 14:57 41.30105 -3.11541 14897 ft 227 kts 22°
2026-05-06 14:57 41.31534 -3.10659 15021 ft 226 kts 22°
2026-05-06 14:57 41.32957 -3.09780 15144 ft 226 kts 22°
2026-05-06 14:57 41.34384 -3.08898 15270 ft 227 kts 22°
2026-05-06 14:58 41.35816 -3.08014 15397 ft 227 kts 22°
2026-05-06 14:58 41.37250 -3.07127 15523 ft 227 kts 22°
2026-05-06 14:58 41.38685 -3.06239 15648 ft 228 kts 22°
2026-05-06 14:58 41.40121 -3.05350 15773 ft 228 kts 22°
2026-05-06 14:59 41.41556 -3.04462 15898 ft 228 kts 22°
2026-05-06 14:59 41.42993 -3.03571 16023 ft 227 kts 21°
2026-05-06 14:59 41.44426 -3.02682 16148 ft 227 kts 21°
2026-05-06 14:59 41.45860 -3.01793 16273 ft 227 kts 21°
2026-05-06 15:00 41.47292 -3.00904 16398 ft 227 kts 21°
2026-05-06 15:00 41.48720 -3.00017 16523 ft 226 kts 21°
2026-05-06 15:00 41.50149 -2.99130 16648 ft 227 kts 21°
2026-05-06 15:00 41.51567 -2.98249 16773 ft 229 kts 21°
2026-05-06 15:01 41.53013 -2.97351 16899 ft 230 kts 21°
2026-05-06 15:01 41.54467 -2.96447 17024 ft 231 kts 21°
2026-05-06 15:01 41.55924 -2.95540 17150 ft 231 kts 21°
2026-05-06 15:01 41.57387 -2.94629 17275 ft 232 kts 21°
2026-05-06 15:02 41.58850 -2.93717 17401 ft 232 kts 21°
2026-05-06 15:02 41.60315 -2.92804 17526 ft 232 kts 21°
2026-05-06 15:02 41.61779 -2.91891 17651 ft 232 kts 21°
2026-05-06 15:02 41.63243 -2.90977 17776 ft 232 kts 21°
2026-05-06 15:03 41.64708 -2.90062 17901 ft 232 kts 21°
2026-05-06 15:03 41.66177 -2.89145 17994 ft 234 kts 21°
2026-05-06 15:03 41.67659 -2.88220 18072 ft 236 kts 21°
2026-05-06 15:03 41.69154 -2.87286 18154 ft 238 kts 21°
2026-05-06 15:04 41.70658 -2.86345 18232 ft 239 kts 21°
2026-05-06 15:04 41.72170 -2.85399 18308 ft 241 kts 21°
2026-05-06 15:04 41.73690 -2.84448 18384 ft 242 kts 21°
2026-05-06 15:04 41.75215 -2.83491 18459 ft 243 kts 21°
2026-05-06 15:05 41.76748 -2.82530 18538 ft 243 kts 21°
2026-05-06 15:05 41.78281 -2.81568 18616 ft 244 kts 21°
2026-05-06 15:05 41.79816 -2.80604 18697 ft 244 kts 21°
2026-05-06 15:05 41.81356 -2.79637 18770 ft 245 kts 21°
2026-05-06 15:06 41.82898 -2.78668 18843 ft 245 kts 21°
2026-05-06 15:06 41.84444 -2.77696 18918 ft 246 kts 21°
2026-05-06 15:06 41.85991 -2.76724 18993 ft 246 kts 21°
2026-05-06 15:06 41.87546 -2.75746 19069 ft 247 kts 21°
2026-05-06 15:07 41.89106 -2.74764 19145 ft 248 kts 21°
2026-05-06 15:07 41.90678 -2.73775 19224 ft 251 kts 21°
2026-05-06 15:07 41.92268 -2.72775 19304 ft 254 kts 21°
2026-05-06 15:07 41.93877 -2.71763 19366 ft 256 kts 21°
2026-05-06 15:08 41.95491 -2.70745 19435 ft 257 kts 21°
2026-05-06 15:08 41.97111 -2.69723 19501 ft 258 kts 21°
2026-05-06 15:08 41.98738 -2.68695 19572 ft 258 kts 21°
2026-05-06 15:08 42.00364 -2.67667 19647 ft 258 kts 22°
2026-05-06 15:09 42.01990 -2.66637 19725 ft 258 kts 22°
2026-05-06 15:09 42.03616 -2.65608 19801 ft 258 kts 22°
2026-05-06 15:09 42.05241 -2.64578 19876 ft 258 kts 22°
2026-05-06 15:09 42.06865 -2.63549 19951 ft 258 kts 22°
2026-05-06 15:10 42.08487 -2.62520 20026 ft 258 kts 22°
2026-05-06 15:10 42.10106 -2.61493 20101 ft 257 kts 22°
2026-05-06 15:10 42.11724 -2.60465 20176 ft 257 kts 22°
2026-05-06 15:10 42.13318 -2.59453 20250 ft 257 kts 22°
2026-05-06 15:11 42.14934 -2.58426 20324 ft 256 kts 22°
2026-05-06 15:11 42.16544 -2.57402 20399 ft 256 kts 22°
2026-05-06 15:11 42.18153 -2.56379 20474 ft 255 kts 22°
2026-05-06 15:11 42.19758 -2.55358 20548 ft 255 kts 22°
2026-05-06 15:12 42.21360 -2.54337 20622 ft 254 kts 22°
2026-05-06 15:12 42.22959 -2.53318 20697 ft 254 kts 21°
2026-05-06 15:12 42.24558 -2.52299 20773 ft 255 kts 21°
2026-05-06 15:12 42.26165 -2.51275 20849 ft 255 kts 21°
2026-05-06 15:13 42.27772 -2.50250 20924 ft 256 kts 21°
2026-05-06 15:13 42.29381 -2.49223 20999 ft 256 kts 22°
2026-05-06 15:13 42.30994 -2.48192 21075 ft 256 kts 22°
2026-05-06 15:13 42.32607 -2.47161 21151 ft 257 kts 22°
2026-05-06 15:14 42.34221 -2.46129 21226 ft 257 kts 22°
2026-05-06 15:14 42.35836 -2.45095 21302 ft 257 kts 22°
2026-05-06 15:14 42.37451 -2.44061 21376 ft 257 kts 22°
2026-05-06 15:14 42.39065 -2.43027 21452 ft 257 kts 22°
2026-05-06 15:15 42.40680 -2.41992 21527 ft 257 kts 22°
2026-05-06 15:15 42.42291 -2.40958 21602 ft 257 kts 22°
2026-05-06 15:15 42.43904 -2.39923 21677 ft 256 kts 22°
2026-05-06 15:15 42.45514 -2.38889 21751 ft 256 kts 22°
2026-05-06 15:16 42.47123 -2.37855 21827 ft 256 kts 22°
2026-05-06 15:16 42.48729 -2.36823 21902 ft 255 kts 22°
2026-05-06 15:16 42.50335 -2.35790 21975 ft 255 kts 22°
2026-05-06 15:16 42.51937 -2.34759 22050 ft 255 kts 22°
2026-05-06 15:17 42.53538 -2.33728 22125 ft 254 kts 22°
2026-05-06 15:17 42.55134 -2.32699 22199 ft 254 kts 22°
2026-05-06 15:17 42.56729 -2.31671 22274 ft 254 kts 22°
2026-05-06 15:17 42.58321 -2.30643 22348 ft 253 kts 22°
2026-05-06 15:18 42.59890 -2.29631 22421 ft 253 kts 22°
2026-05-06 15:18 42.61474 -2.28607 22496 ft 252 kts 22°
2026-05-06 15:18 42.63058 -2.27584 22571 ft 252 kts 22°
2026-05-06 15:18 42.64637 -2.26563 22645 ft 251 kts 22°
2026-05-06 15:19 42.66212 -2.25544 22719 ft 251 kts 22°
2026-05-06 15:19 42.67787 -2.24525 22793 ft 250 kts 22°
2026-05-06 15:19 42.69355 -2.23509 22868 ft 250 kts 22°
2026-05-06 15:19 42.70921 -2.22494 22942 ft 249 kts 22°
2026-05-06 15:20 42.72482 -2.21481 23016 ft 248 kts 22°
2026-05-06 15:20 42.74041 -2.20470 23091 ft 248 kts 22°
2026-05-06 15:20 42.75595 -2.19461 23165 ft 247 kts 22°
2026-05-06 15:20 42.77144 -2.18455 23240 ft 247 kts 22°
2026-05-06 15:21 42.78690 -2.17450 23314 ft 246 kts 22°
2026-05-06 15:21 42.80231 -2.16448 23387 ft 245 kts 22°
2026-05-06 15:21 42.81769 -2.15448 23461 ft 245 kts 22°
2026-05-06 15:21 42.83301 -2.14450 23536 ft 244 kts 22°
2026-05-06 15:22 42.84830 -2.13455 23610 ft 243 kts 22°
2026-05-06 15:22 42.86350 -2.12464 23685 ft 242 kts 22°
2026-05-06 15:22 42.87872 -2.11472 23759 ft 242 kts 22°
2026-05-06 15:22 42.89385 -2.10484 23833 ft 241 kts 22°
2026-05-06 15:23 42.90894 -2.09500 23907 ft 240 kts 22°
2026-05-06 15:23 42.92398 -2.08517 23982 ft 239 kts 22°
2026-05-06 15:23 42.93884 -2.07547 24007 ft 241 kts 22°
2026-05-06 15:23 42.95397 -2.06559 24006 ft 242 kts 22°
2026-05-06 15:24 42.96922 -2.05561 24005 ft 244 kts 22°
2026-05-06 15:24 42.98455 -2.04559 24005 ft 245 kts 22°
2026-05-06 15:24 43.00003 -2.03546 24005 ft 248 kts 22°
2026-05-06 15:24 43.01564 -2.02524 24007 ft 250 kts 22°
2026-05-06 15:25 43.03139 -2.01492 24008 ft 252 kts 22°
2026-05-06 15:25 43.04724 -2.00452 24009 ft 254 kts 22°
2026-05-06 15:25 43.06323 -1.99403 24010 ft 256 kts 22°
2026-05-06 15:25 43.07931 -1.98346 24012 ft 257 kts 22°
2026-05-06 15:26 43.09549 -1.97283 24013 ft 259 kts 22°
2026-05-06 15:26 43.11177 -1.96213 24013 ft 260 kts 22°
2026-05-06 15:26 43.12813 -1.95136 24014 ft 262 kts 22°
2026-05-06 15:26 43.14461 -1.94051 24015 ft 263 kts 22°
2026-05-06 15:27 43.16114 -1.92962 24016 ft 264 kts 22°
2026-05-06 15:27 43.17777 -1.91866 24018 ft 266 kts 22°
2026-05-06 15:27 43.18881 -1.91138 24017 ft 267 kts 22°
2026-05-06 15:27 43.21124 -1.89657 24019 ft 268 kts 22°
2026-05-06 15:28 43.22236 -1.88923 24019 ft 269 kts 22°
2026-05-06 15:28 43.23925 -1.87807 24020 ft 270 kts 22°
2026-05-06 15:28 43.25619 -1.86686 24021 ft 271 kts 22°
2026-05-06 15:28 43.27319 -1.85561 24022 ft 272 kts 22°
2026-05-06 15:29 43.29021 -1.84424 24022 ft 273 kts 23°
2026-05-06 15:29 43.30720 -1.83258 24022 ft 273 kts 24°
2026-05-06 15:29 43.32416 -1.82076 24023 ft 274 kts 24°
2026-05-06 15:29 43.34114 -1.80884 24022 ft 274 kts 24°
2026-05-06 15:30 43.35812 -1.79685 24022 ft 275 kts 24°
2026-05-06 15:30 43.37512 -1.78482 24022 ft 275 kts 24°
2026-05-06 15:30 43.39214 -1.77273 24021 ft 276 kts 24°
2026-05-06 15:30 43.40919 -1.76061 24022 ft 276 kts 24°
2026-05-06 15:31 43.42622 -1.74847 24022 ft 276 kts 24°
2026-05-06 15:31 43.44330 -1.73630 24023 ft 276 kts 24°
2026-05-06 15:31 43.46038 -1.72410 24023 ft 277 kts 24°
2026-05-06 15:32 43.49459 -1.69965 24022 ft 277 kts 24°
2026-05-06 15:32 43.51172 -1.68739 24022 ft 278 kts 24°
2026-05-06 15:32 43.52886 -1.67511 24021 ft 278 kts 24°
2026-05-06 15:32 43.54600 -1.66282 24020 ft 278 kts 24°
2026-05-06 15:33 43.56318 -1.65050 24020 ft 278 kts 24°
2026-05-06 15:33 43.58035 -1.63818 24019 ft 278 kts 24°
2026-05-06 15:33 43.59755 -1.62582 24018 ft 279 kts 24°
2026-05-06 15:33 43.61474 -1.61347 24018 ft 279 kts 24°
2026-05-06 15:34 43.63172 -1.60125 24018 ft 279 kts 24°
2026-05-06 15:34 43.64892 -1.58887 24017 ft 279 kts 24°
2026-05-06 15:34 43.66614 -1.57647 24017 ft 279 kts 24°
2026-05-06 15:34 43.68338 -1.56404 24019 ft 279 kts 24°
2026-05-06 15:35 43.70062 -1.55161 24020 ft 279 kts 24°
2026-05-06 15:35 43.71785 -1.53917 24020 ft 280 kts 24°
2026-05-06 15:35 43.73510 -1.52672 24020 ft 280 kts 24°
2026-05-06 15:35 43.75235 -1.51426 24019 ft 280 kts 24°
2026-05-06 15:36 43.76962 -1.50177 24009 ft 280 kts 24°
2026-05-06 15:36 43.78690 -1.48926 24007 ft 280 kts 24°
2026-05-06 15:36 43.80420 -1.47674 24005 ft 281 kts 24°
2026-05-06 15:36 43.82151 -1.46420 24005 ft 281 kts 24°
2026-05-06 15:37 43.83881 -1.45166 24004 ft 281 kts 24°
2026-05-06 15:37 43.85611 -1.43911 24002 ft 281 kts 24°
2026-05-06 15:37 43.87342 -1.42655 24002 ft 281 kts 25°
2026-05-06 15:37 43.89073 -1.41397 24001 ft 281 kts 25°
2026-05-06 15:38 43.90805 -1.40138 23999 ft 281 kts 25°
2026-05-06 15:38 43.92538 -1.38877 24000 ft 281 kts 25°
2026-05-06 15:38 43.94270 -1.37617 24000 ft 281 kts 25°
2026-05-06 15:38 43.96002 -1.36355 24000 ft 281 kts 25°
2026-05-06 15:39 43.97736 -1.35092 24000 ft 281 kts 25°
2026-05-06 15:39 43.99469 -1.33828 23999 ft 281 kts 25°
2026-05-06 15:39 44.01204 -1.32561 23999 ft 281 kts 24°
2026-05-06 15:39 44.02936 -1.31296 23999 ft 281 kts 24°
2026-05-06 15:40 44.04669 -1.30030 23998 ft 281 kts 24°
2026-05-06 15:40 44.06402 -1.28763 23998 ft 281 kts 24°
2026-05-06 15:40 44.08111 -1.27512 23997 ft 281 kts 24°
2026-05-06 15:40 44.09843 -1.26245 23997 ft 281 kts 25°
2026-05-06 15:41 44.11575 -1.24975 23997 ft 281 kts 25°
2026-05-06 15:41 44.13307 -1.23705 23996 ft 281 kts 25°
2026-05-06 15:41 44.15040 -1.22434 23995 ft 281 kts 25°
2026-05-06 15:41 44.16771 -1.21163 23995 ft 281 kts 25°
2026-05-06 15:42 44.18503 -1.19891 23995 ft 281 kts 25°
2026-05-06 15:42 44.20233 -1.18618 23994 ft 281 kts 25°
2026-05-06 15:42 44.21963 -1.17346 23994 ft 281 kts 25°
2026-05-06 15:42 44.23695 -1.16071 23993 ft 281 kts 25°
2026-05-06 15:43 44.25425 -1.14796 23993 ft 281 kts 25°
2026-05-06 15:43 44.27156 -1.13521 23993 ft 281 kts 25°
2026-05-06 15:43 44.28887 -1.12244 23993 ft 281 kts 25°
2026-05-06 15:43 44.30432 -1.11103 23994 ft 282 kts 25°
2026-05-06 15:44 44.32166 -1.09823 23993 ft 282 kts 24°
2026-05-06 15:44 44.33901 -1.08540 23992 ft 282 kts 24°
2026-05-06 15:44 44.35634 -1.07258 23992 ft 282 kts 24°
2026-05-06 15:44 44.37369 -1.05974 23992 ft 282 kts 24°
2026-05-06 15:45 44.39101 -1.04692 23991 ft 282 kts 24°
2026-05-06 15:45 44.40832 -1.03409 23991 ft 282 kts 25°
2026-05-06 15:45 44.42565 -1.02124 23991 ft 282 kts 25°
2026-05-06 15:45 44.44296 -1.00840 23991 ft 282 kts 25°
2026-05-06 15:46 44.46026 -0.99555 23991 ft 281 kts 25°
2026-05-06 15:46 44.47755 -0.98270 23991 ft 281 kts 25°
2026-05-06 15:46 44.49484 -0.96984 23991 ft 281 kts 25°
2026-05-06 15:46 44.51213 -0.95698 23990 ft 281 kts 25°
2026-05-06 15:47 44.52942 -0.94411 23989 ft 281 kts 25°
2026-05-06 15:47 44.54669 -0.93123 23988 ft 281 kts 25°
2026-05-06 15:47 44.56399 -0.91834 23987 ft 281 kts 25°
2026-05-06 15:47 44.58125 -0.90546 23986 ft 281 kts 25°
2026-05-06 15:48 44.59852 -0.89256 23984 ft 281 kts 24°
2026-05-06 15:48 44.61584 -0.87962 23982 ft 281 kts 24°
2026-05-06 15:48 44.63286 -0.86689 23981 ft 281 kts 24°
2026-05-06 15:48 44.65010 -0.85399 23978 ft 281 kts 24°
2026-05-06 15:49 44.66738 -0.84106 23976 ft 281 kts 25°
2026-05-06 15:49 44.68466 -0.82811 23974 ft 281 kts 25°
2026-05-06 15:49 44.70191 -0.81518 23972 ft 281 kts 25°
2026-05-06 15:49 44.71917 -0.80223 23970 ft 281 kts 25°
2026-05-06 15:50 44.73644 -0.78926 23967 ft 281 kts 25°
2026-05-06 15:50 44.75369 -0.77630 23966 ft 281 kts 25°
2026-05-06 15:50 44.77094 -0.76333 23965 ft 281 kts 25°
2026-05-06 15:50 44.78819 -0.75035 23964 ft 281 kts 25°
2026-05-06 15:51 44.80544 -0.73740 23964 ft 281 kts 24°
2026-05-06 15:51 44.82274 -0.72455 23964 ft 281 kts 24°
2026-05-06 15:51 44.84002 -0.71177 23964 ft 281 kts 24°
2026-05-06 15:51 44.85733 -0.69900 23964 ft 281 kts 24°
2026-05-06 15:52 44.87463 -0.68625 23964 ft 280 kts 24°
2026-05-06 15:52 44.89190 -0.67351 23964 ft 280 kts 24°
2026-05-06 15:52 44.90920 -0.66076 23964 ft 280 kts 24°
2026-05-06 15:52 44.92647 -0.64802 23963 ft 280 kts 24°
2026-05-06 15:53 44.94374 -0.63527 23964 ft 280 kts 24°
2026-05-06 15:53 44.96098 -0.62255 23963 ft 280 kts 24°
2026-05-06 15:53 44.97829 -0.60976 23962 ft 280 kts 24°
2026-05-06 15:53 44.99554 -0.59701 23962 ft 280 kts 24°
2026-05-06 15:54 45.01281 -0.58424 23961 ft 280 kts 24°
2026-05-06 15:54 45.03005 -0.57148 23961 ft 280 kts 24°
2026-05-06 15:54 45.04730 -0.55870 23959 ft 280 kts 24°
2026-05-06 15:54 45.06455 -0.54592 23956 ft 280 kts 24°
2026-05-06 15:55 45.08178 -0.53314 23959 ft 280 kts 24°
2026-05-06 15:55 45.09902 -0.52035 23957 ft 280 kts 24°
2026-05-06 15:55 45.11624 -0.50756 23955 ft 280 kts 24°
2026-05-06 15:55 45.13349 -0.49475 23953 ft 280 kts 24°
2026-05-06 15:56 45.15071 -0.48195 23952 ft 280 kts 24°
2026-05-06 15:56 45.16794 -0.46913 23952 ft 280 kts 24°
2026-05-06 15:56 45.18518 -0.45630 23950 ft 280 kts 24°
2026-05-06 15:56 45.20240 -0.44346 23949 ft 280 kts 24°
2026-05-06 15:57 45.21964 -0.43061 23949 ft 280 kts 24°
2026-05-06 15:57 45.23686 -0.41776 23948 ft 280 kts 24°
2026-05-06 15:57 45.25408 -0.40490 23947 ft 280 kts 24°
2026-05-06 15:57 45.27109 -0.39219 23946 ft 280 kts 24°
2026-05-06 15:58 45.28829 -0.37933 23944 ft 280 kts 24°
2026-05-06 15:58 45.30552 -0.36644 23943 ft 280 kts 24°
2026-05-06 15:58 45.32273 -0.35356 23942 ft 280 kts 24°
2026-05-06 15:58 45.33993 -0.34067 23942 ft 280 kts 24°
2026-05-06 15:59 45.35716 -0.32776 23941 ft 280 kts 24°
2026-05-06 15:59 45.37436 -0.31485 23940 ft 279 kts 24°
2026-05-06 15:59 45.39159 -0.30192 23934 ft 280 kts 24°
2026-05-06 15:59 45.40878 -0.28901 23931 ft 280 kts 24°
2026-05-06 16:00 45.42599 -0.27607 23931 ft 280 kts 24°
2026-05-06 16:00 45.44318 -0.26314 23929 ft 280 kts 24°
2026-05-06 16:00 45.46037 -0.25019 23928 ft 280 kts 24°
2026-05-06 16:00 45.47756 -0.23725 23929 ft 279 kts 24°
2026-05-06 16:01 45.49474 -0.22429 23929 ft 279 kts 24°
2026-05-06 16:01 45.51191 -0.21134 23929 ft 279 kts 24°
2026-05-06 16:01 45.52906 -0.19839 23929 ft 279 kts 24°
2026-05-06 16:01 45.54624 -0.18541 23929 ft 279 kts 24°
2026-05-06 16:02 45.56340 -0.17244 23929 ft 279 kts 24°
2026-05-06 16:02 45.58056 -0.15946 23928 ft 279 kts 24°
2026-05-06 16:02 45.59770 -0.14648 23928 ft 279 kts 24°
2026-05-06 16:02 45.61486 -0.13348 23928 ft 279 kts 24°
2026-05-06 16:03 45.63202 -0.12047 23928 ft 279 kts 24°
2026-05-06 16:03 45.64916 -0.10747 23927 ft 279 kts 24°
2026-05-06 16:03 45.66630 -0.09446 23926 ft 279 kts 24°
2026-05-06 16:03 45.68342 -0.08145 23925 ft 279 kts 24°
2026-05-06 16:04 45.70059 -0.06840 23923 ft 279 kts 24°
2026-05-06 16:04 45.71772 -0.05537 23921 ft 279 kts 24°